GW3157 Weather Reports


time (UTC)temp
F
wind
direction
speed
knots
gust
knots
rain 1hr
in
rain 24hr
in
rain mn
in
humidity
%
barometer
mb
20260506155500 64 65 8.7 12.2 0.00 0.00 0.00 97 1011.7
20260506155002 64 18 7.8 12.2 0.00 0.00 0.00 97 1011.9
20260506154501 64 6 8.7 13.0 0.00 0.00 0.00 97 1012.0
20260506154001 64 35 8.7 13.0 0.00 0.00 0.00 97 1011.8
20260506153501 64 45 8.7 13.9 0.00 0.00 0.00 97 1011.9
20260506153002 64 11 8.7 13.9 0.00 0.00 0.00 97 1012.2
20260506152502 64 355 8.7 13.0 0.00 0.00 0.00 97 1012.4
20260506152001 64 4 8.7 13.0 0.00 0.00 0.00 97 1012.6
20260506151500 64 357 7.8 12.2 0.00 0.00 0.00 97 1012.8
20260506151001 64 35 7.8 11.3 0.00 0.00 0.00 97 1013.0
20260506150501 64 118 7.0 11.3 0.00 0.00 0.00 97 1013.2
20260506150006 64 47 7.0 11.3 0.00 0.00 0.00 97 1013.3
20260506145459 64 105 7.0 10.4 0.00 0.00 0.00 97 1013.5
20260506145000 64 14 7.0 10.4 0.00 0.00 0.00 96 1013.5
20260506144459 64 23 7.0 10.4 0.00 0.00 0.00 96 1013.7
20260506144001 64 54 6.1 10.4 0.00 0.00 0.00 96 1013.8
20260506143500 64 127 6.1 10.4 0.00 0.00 0.00 96 1014.0
20260506142500 65 150 5.2 9.6 0.00 0.00 0.00 97 1014.4
20260506142001 65 6 6.1 10.4 0.00 0.00 0.00 97 1014.4
20260506141500 65 104 7.0 11.3 0.00 0.00 0.00 97 1014.3
20260506141002 64 9 7.0 11.3 0.00 0.00 0.00 97 1014.4
20260506140005 64 25 7.0 9.6 0.00 0.00 0.00 97 1014.2
20260506135500 64 26 7.0 10.4 0.00 0.00 0.00 97 1014.2
20260506135001 64 55 7.0 10.4 0.00 0.00 0.00 97 1014.4
20260506134459 64 14 7.0 10.4 0.00 0.00 0.00 97 1014.4
20260506134000 64 360 7.0 10.4 0.00 0.00 0.00 97 1014.4
20260506133459 64 18 6.1 9.6 0.00 0.00 0.00 97 1014.4
20260506133000 64 26 6.1 9.6 0.00 0.00 0.00 97 1014.8
20260506132503 64 21 5.2 9.6 0.00 0.00 0.00 97 1015.1
20260506131500 64 28 4.3 7.8 0.00 0.00 0.00 97 1015.4
20260506131000 64 33 4.3 7.8 0.00 0.00 0.00 97 1015.4
20260506130459 64 70 4.3 8.7 0.00 0.00 0.00 97 1015.3
20260506130007 64 51 5.2 8.7 0.00 0.00 0.00 97 1015.4
20260506125001 64 18 6.1 9.6 0.00 0.00 0.00 97 1015.4
20260506124500 64 139 6.1 9.6 0.00 0.00 0.00 97 1015.5
20260506124000 64 79 6.1 9.6 0.00 0.00 0.00 97 1015.3
20260506122459 64 125 5.2 8.7 0.00 0.00 0.00 97 1014.9
20260506121459 64 40 4.3 7.0 0.00 0.00 0.00 97 1014.7
20260506121001 64 102 3.5 7.0 0.00 0.00 0.00 97 1014.7
20260506120459 64 145 5.2 7.8 0.00 0.00 0.00 97 1014.7
20260506120005 64 46 6.1 9.6 0.00 0.00 0.00 97 1014.5
20260506115500 64 83 6.1 8.7 0.00 0.00 0.00 97 1014.6
20260506114500 64 12 6.1 10.4 0.00 0.00 0.00 97 1014.6
20260506114000 64 110 7.0 10.4 0.00 0.00 0.00 97 1014.8
20260506113500 64 111 7.8 11.3 0.00 0.00 0.00 97 1014.8
20260506112459 64 74 7.8 11.3 0.00 0.00 0.00 97 1015.2
20260506112000 64 23 7.0 12.2 0.00 0.00 0.00 97 1015.1
20260506111000 64 356 7.0 10.4 0.00 0.00 0.00 97 1015.1
20260506110459 64 21 7.0 10.4 0.00 0.00 0.00 97 1014.9
20260506110004 63 66 7.8 13.0 0.00 0.00 0.00 97 1014.9
20260506105500 63 24 8.7 13.0 0.00 0.00 0.00 97 1015.0
20260506105000 63 9 7.8 13.0 0.00 0.00 0.00 97 1015.0
20260506103459 63 55 7.0 11.3 0.00 0.00 0.00 97 1014.9
20260506103000 63 138 7.0 9.6 0.00 0.00 0.00 97 1014.9
20260506102500 63 76 7.0 9.6 0.00 0.00 0.00 97 1014.9
20260506102000 63 9 6.1 9.6 0.00 0.00 0.00 97 1015.0
20260506101459 63 141 6.1 9.6 0.00 0.00 0.00 97 1014.9
20260506101000 63 134 6.1 9.6 0.00 0.00 0.00 97 1014.8
20260506100500 63 135 6.1 8.7 0.00 0.00 0.00 97 1015.0
20260506100007 63 51 6.1 8.7 0.00 0.00 0.00 97 1014.9
20260506095001 63 120 3.5 6.1 0.00 0.00 0.00 97 1014.9
20260506094459 63 137 4.3 6.1 0.00 0.00 0.00 97 1014.8
20260506094000 63 66 4.3 7.0 0.00 0.00 0.00 97 1014.8
20260506093500 63 133 5.2 7.8 0.00 0.00 0.00 97 1014.6
20260506093001 63 136 5.2 7.8 0.00 0.00 0.00 97 1014.5
20260506092459 63 62 4.3 7.0 0.00 0.00 0.00 97 1014.5
20260506092000 63 112 4.3 7.0 0.00 0.00 0.00 96 1014.5
20260506091000 63 127 2.6 4.3 0.00 0.00 0.00 96 1014.3
20260506090459 63 33 2.6 4.3 0.00 0.00 0.00 96 1014.3
20260506090005 63 140 2.6 5.2 0.00 0.00 0.00 96 1014.2
20260506085459 63 141 2.6 6.1 0.00 0.00 0.00 96 1014.3
20260506085000 63 132 2.6 6.1 0.00 0.00 0.00 96 1014.3
20260506084459 63 144 2.6 4.3 0.00 0.00 0.00 96 1014.2
20260506084000 63 138 2.6 3.5 0.00 0.00 0.00 96 1013.9
20260506083500 63 97 2.6 3.5 0.00 0.00 0.00 96 1014.2
20260506083000 63 120 1.7 2.6 0.00 0.00 0.00 96 1014.3
20260506082501 63 51 1.7 2.6 0.00 0.00 0.00 96 1014.2
20260506082000 63 88 1.7 3.5 0.00 0.00 0.00 96 1014.4
20260506081502 63 138 2.6 4.3 0.00 0.00 0.00 95 1014.5
20260506081000 63 120 2.6 4.3 0.00 0.00 0.00 95 1014.3
20260506080500 63 42 2.6 4.3 0.00 0.00 0.00 95 1014.3
20260506073459 64 97 2.6 4.3 0.00 0.00 0.00 94 1014.5
20260506072500 65 9 1.7 3.5 0.00 0.00 0.00 93 1014.3
20260506072000 65 100 1.7 3.5 0.00 0.00 0.00 93 1014.2
20260506071459 65 153 0.9 2.6 0.00 0.00 0.00 93 1014.2
20260506071001 65 155 0.9 1.7 0.00 0.00 0.00 93 1014.4
20260506070459 65 156 0.9 1.7 0.00 0.00 0.00 93 1014.4
20260506062000 66 350 2.6 5.2 0.00 0.00 0.00 93 1014.9
20260506061500 65 353 3.5 5.2 0.00 0.00 0.00 93 1014.9
20260506061001 65 355 3.5 5.2 0.00 0.00 0.00 93 1015.0
20260506060459 65 350 3.5 5.2 0.00 0.00 0.00 93 1015.2
20260506050501 65 351 2.6 5.2 0.00 0.00 0.00 92 1015.9
20260506045000 66 344 2.6 6.1 0.00 0.00 0.00 91 1015.7
20260506044459 66 345 3.5 7.0 0.00 0.00 0.00 91 1015.8
20260506044000 66 347 3.5 7.8 0.00 0.00 0.00 91 1015.9
20260506043459 66 346 3.5 7.8 0.00 0.00 0.00 91 1015.7
20260506043001 66 345 3.5 7.0 0.00 0.00 0.00 91 1015.3
20260506042500 66 345 2.6 7.0 0.00 0.00 0.00 92 1014.9
20260506042000 66 353 1.7 7.0 0.00 0.00 0.00 92 1015.0
20260506041500 65 353 2.6 6.1 0.00 0.00 0.00 92 1015.0
20260506040500 65 357 2.6 6.1 0.00 0.00 0.00 93 1015.2
20260506035000 63 2 4.3 6.1 0.00 0.00 0.00 93 1015.3
20260506034459 63 38 4.3 6.1 0.00 0.00 0.00 94 1015.2
20260506033500 63 128 4.3 7.0 0.00 0.00 0.00 94 1015.4
20260506032459 63 73 4.3 6.1 0.00 0.00 0.00 94 1015.5
20260506032000 63 26 4.3 6.1 0.00 0.00 0.00 94 1015.5
20260506031500 63 59 4.3 6.1 0.00 0.00 0.00 94 1015.5
20260506031001 63 5 4.3 6.1 0.00 0.00 0.00 93 1015.3
20260506030459 63 120 3.5 6.1 0.00 0.00 0.00 93 1015.2
20260506030009 63 52 2.6 5.2 0.00 0.00 0.00 93 1015.4
20260506025001 63 56 1.7 2.6 0.00 0.00 0.00 93 1015.4
20260506024459 63 42 1.7 2.6 0.00 0.00 0.00 93 1015.6
20260506024000 63 101 0.9 1.7 0.00 0.00 0.00 93 1015.6
20260506023500 63 101 0.9 1.7 0.00 0.00 0.00 92 1015.4
20260506022959 64 101 1.7 2.6 0.00 0.00 0.00 92 1015.5
20260506022500 64 42 1.7 3.5 0.00 0.00 0.00 92 1015.5
20260506022000 64 28 0.9 3.5 0.00 0.00 0.00 91 1015.4
20260506021459 64 137 0.9 2.6 0.00 0.00 0.00 91 1015.6
20260506021002 64 139 1.7 2.6 0.00 0.00 0.00 90 1015.5
20260506020458 64 128 1.7 2.6 0.00 0.00 0.00 90 1015.5
20260506020007 64 94 0.9 2.6 0.00 0.00 0.00 90 1015.5
20260506015501 64 130 0.0 0.0 0.00 0.00 0.00 89 1015.6
20260506015003 64 26 0.0 0.0 0.00 0.00 0.00 90 1015.5
20260506014503 64 26 0.0 0.0 0.00 0.00 0.00 90 1015.6
20260506014003 64 26 0.0 0.0 0.00 0.00 0.00 90 1015.8
20260506013503 64 26 0.0 0.9 0.00 0.00 0.00 89 1015.6
20260506013002 64 26 0.9 2.6 0.00 0.00 0.00 89 1015.2
20260506012502 64 21 1.7 4.3 0.00 0.00 0.00 89 1014.8
20260506012004 64 7 2.6 4.3 0.00 0.00 0.00 88 1014.7
20260506011501 65 42 1.7 3.5 0.00 0.00 0.00 87 1014.6
20260506011002 65 2 1.7 2.6 0.00 0.00 0.00 89 1014.6
20260506010501 64 357 1.7 2.6 0.00 0.00 0.00 90 1014.7
20260506005501 64 22 1.7 2.6 0.00 0.00 0.00 91 1014.8
20260506005002 64 23 1.7 2.6 0.00 0.00 0.00 91 1015.0
20260506004502 64 8 2.6 4.3 0.00 0.00 0.00 91 1015.2
20260506004002 64 45 3.5 6.1 0.00 0.00 0.00 92 1015.4
20260506003004 64 22 4.3 7.0 0.00 0.00 0.00 92 1015.4
20260506002502 64 16 4.3 6.1 0.00 0.00 0.00 92 1015.5
20260506001502 64 34 5.2 7.0 0.00 0.00 0.00 92 1015.3
20260506001020 64 20 4.3 6.1 0.00 0.00 0.00 92 1015.5
20260506000501 64 97 4.3 6.1 0.00 0.00 0.00 92 1015.4
20260505235504 64 85 4.3 7.0 0.00 0.00 0.00 92 1015.3
20260505235000 64 14 5.2 8.7 0.00 0.00 0.00 92 1015.2
20260505234500 64 26 5.2 8.7 0.00 0.00 0.00 91 1015.2
20260505234001 64 65 5.2 7.8 0.00 0.00 0.00 91 1015.3
20260505233501 64 78 4.3 7.0 0.00 0.00 0.00 91 1015.4
20260505232502 64 102 4.3 7.0 0.00 0.00 0.00 91 1015.3
20260505232001 64 92 3.5 7.0 0.00 0.00 0.00 92 1015.3
20260505231002 64 113 3.5 5.2 0.00 0.00 0.00 91 1015.3
20260505230502 64 113 3.5 5.2 0.00 0.00 0.00 91 1015.2
20260505230007 65 130 3.5 5.2 0.00 0.00 0.00 90 1015.4
20260505225502 65 87 2.6 5.2 0.00 0.00 0.00 90 1015.6
20260505225004 65 142 2.6 4.3 0.00 0.00 0.00 89 1015.8
20260505224503 66 123 3.5 5.2 0.00 0.00 0.00 88 1015.5
20260505223501 66 31 3.5 5.2 0.00 0.00 0.00 87 1015.5
20260505222501 66 47 2.6 4.3 0.00 0.00 0.00 86 1015.5
20260505221003 66 74 2.6 4.3 0.00 0.00 0.00 86 1015.3
20260505220501 66 73 2.6 4.3 0.00 0.00 0.00 86 1015.3
20260505220008 66 95 2.6 4.3 0.00 0.00 0.00 86 1015.3
20260505215500 66 48 1.7 3.5 0.00 0.00 0.00 85 1015.1
20260505215002 66 29 1.7 4.3 0.00 0.00 0.00 85 1015.1
20260505214500 66 71 2.6 6.1 0.00 0.00 0.00 84 1015.0
20260505214001 67 21 2.6 6.1 0.00 0.00 0.00 82 1015.1
20260505213001 67 50 1.7 2.6 0.00 0.00 0.00 81 1015.2
20260505212500 67 41 1.7 2.6 0.00 0.00 0.00 81 1015.2
20260505212002 66 37 1.7 2.6 0.00 0.00 0.00 81 1015.2
20260505211501 66 9 2.6 3.5 0.00 0.00 0.00 83 1015.2
20260505211002 67 35 1.7 2.6 0.00 0.00 0.00 83 1015.2
20260505210501 66 38 1.7 2.6 0.00 0.00 0.00 83 1015.2
20260505210012 66 34 1.7 3.5 0.00 0.00 0.00 83 1015.2
20260505205501 67 26 2.6 5.2 0.00 0.00 0.00 84 1015.3
20260505205003 67 7 3.5 5.2 0.00 0.00 0.00 82 1015.3
20260505204500 67 49 2.6 4.3 0.00 0.00 0.00 81 1015.3
20260505204003 68 59 1.7 4.3 0.00 0.00 0.00 80 1015.3
20260505203003 67 20 1.7 2.6 0.00 0.00 0.00 79 1015.2
20260505202502 67 25 1.7 3.5 0.00 0.00 0.00 80 1015.0
20260505202002 67 39 2.6 3.5 0.00 0.00 0.00 81 1015.0
20260505201501 67 16 2.6 3.5 0.00 0.00 0.00 81 1014.9
20260505201002 67 37 1.7 3.5 0.00 0.00 0.00 81 1014.8
20260505200006 68 71 1.7 2.6 0.00 0.00 0.00 80 1015.0
20260505195501 68 70 1.7 2.6 0.00 0.00 0.00 80 1015.0
20260505195012 68 68 1.7 2.6 0.00 0.00 0.00 79 1015.1
20260505194501 68 68 2.6 3.5 0.00 0.00 0.00 78 1015.0
20260505194002 68 49 1.7 3.5 0.00 0.00 0.00 77 1015.0
20260505193501 69 47 0.9 2.6 0.00 0.00 0.00 75 1015.1
20260505193001 69 85 0.0 0.0 0.00 0.00 0.00 72 1015.2
20260505192502 70 164 0.0 0.0 0.00 0.00 0.00 72 1015.3
20260505191501 70 165 0.0 0.0 0.00 0.00 0.00 68 1015.3
20260505191002 70 165 0.0 0.0 0.00 0.00 0.00 69 1015.4
20260505190501 70 165 0.0 0.0 0.00 0.00 0.00 70 1015.4
20260505190005 70 165 0.0 0.0 0.00 0.00 0.00 68 1015.3
20260505185001 72 160 0.0 0.0 0.00 0.00 0.00 67 1014.9
20260505184500 72 113 0.0 0.0 0.00 0.00 0.00 70 1014.9
20260505184002 72 113 0.0 0.0 0.00 0.00 0.00 69 1014.7
20260505183500 73 113 0.0 0.0 0.00 0.00 0.00 68 1014.7
20260505183001 72 113 0.0 0.9 0.00 0.00 0.00 68 1014.7
20260505182500 71 112 0.0 1.7 0.00 0.00 0.00 67 1014.6
20260505181501 72 177 0.0 0.0 0.00 0.00 0.00 68 1014.6
20260505181001 71 178 0.0 0.0 0.00 0.00 0.00 69 1014.6
20260505180501 71 174 0.0 0.0 0.00 0.00 0.00 70 1014.7
20260505180005 70 173 0.0 0.0 0.00 0.00 0.00 71 1014.7
20260505175501 69 173 0.0 0.0 0.00 0.00 0.00 71 1014.7
20260505175002 69 173 0.0 0.0 0.00 0.00 0.00 72 1014.7
20260505174501 69 173 0.0 0.0 0.00 0.00 0.00 73 1014.7
20260505174002 68 173 0.0 0.0 0.00 0.00 0.00 74 1014.8
20260505173502 68 174 0.0 0.0 0.00 0.00 0.00 76 1014.8
20260505172501 69 173 0.9 2.6 0.00 0.00 0.00 74 1014.8
20260505171500 70 173 0.9 3.5 0.00 0.00 0.00 73 1014.7
20260505170500 70 315 0.0 0.9 0.00 0.00 0.00 74 1014.6
20260505170008 70 329 0.0 2.6 0.00 0.00 0.00 72 1014.6
20260505165500 69 336 0.0 2.6 0.00 0.00 0.00 73 1014.6
20260505165000 69 23 0.0 1.7 0.00 0.00 0.00 76 1014.6
20260505164501 70 119 0.0 0.9 0.00 0.00 0.00 76 1014.4
20260505164001 69 87 0.0 0.0 0.00 0.00 0.00 76 1014.8
20260505163500 69 87 0.0 0.0 0.00 0.00 0.00 75 1014.7
20260505163000 69 338 0.0 2.6 0.00 0.00 0.00 72 1014.7
20260505162001 68 338 0.9 1.7 0.00 0.00 0.00 74 1014.8
20260505161000 68 334 1.7 3.5 0.00 0.00 0.00 74 1015.2
20260505160500 68 336 1.7 3.5 0.00 0.00 0.00 74 1015.2